(°C)
19°
20°
21°
23°
24°
25°
25°
(°C)
15°
16°
18°
20°
21°
22°
22°
ВЮВ
ЮВ
ЮВ
ЮВ
ЮВ
ЮВ
ЮВ
(км/ч)
15-30
17-32
17-32
17-33
18-34
19-34
20-34
(мм)
0
0
0
0
0
0
0
(%)
0
0
0
15
0
23
37

Высота солнцестояния

/ 29.5°
sun-icon
UV 4
04:10
22:20
Прибывающая луна (34°)
06:09
00:28

METAR для 57.92°С 56.02°В (USPP)

Время Условия Температура/
Точка росы
Ветер Видимость Погода Облачность Давление Изменить Необработанный
VFR 18°C / 9°C 110º 6kt >10km - Clouds and Visibility OK 1017 No Significant change. Runway 21: Clear and dry, 51-100% contamination with <1mm, friction coefficient 0.60. USPP 130300Z 11003MPS CAVOK 18/09 Q1017 R21/090060 NOSIG RMK QFE752
VFR 18°C / 10°C 130º 8kt >10km - Clouds and Visibility OK 1017 No Significant change. Runway 21: Clear and dry, 51-100% contamination with <1mm, friction coefficient 0.60. USPP 130230Z 13004MPS CAVOK 18/10 Q1017 R21/090060 NOSIG RMK QFE752
VFR 17°C / 10°C 130º 10kt >10km - Clouds and Visibility OK 1017 No Significant change. Runway 21: Clear and dry, 51-100% contamination with <1mm, friction coefficient 0.60. USPP 130200Z 13005MPS CAVOK 17/10 Q1017 R21/090060 NOSIG RMK QFE752
VFR 17°C / 10°C 120º 6kt >10km - Clouds and Visibility OK 1017 No Significant change. Runway 21: Clear and dry, 51-100% contamination with <1mm, friction coefficient 0.60. USPP 130130Z 12003MPS CAVOK 17/10 Q1017 R21/090060 NOSIG RMK QFE752
VFR 16°C / 10°C 120º variable 090º to 160º 6kt >10km - Clouds and Visibility OK 1017 No Significant change. Runway 21: Clear and dry, 51-100% contamination with <1mm, friction coefficient 0.60. USPP 130100Z 12003MPS 090V160 CAVOK 16/10 Q1017 R21/090060 NOSIG RMK QFE752
VFR 16°C / 10°C 140º variable 100º to 190º 4kt >10km - Clouds and Visibility OK 1017 No Significant change. Runway 21: Clear and dry, 51-100% contamination with <1mm, friction coefficient 0.60. USPP 130030Z 14002MPS 100V190 CAVOK 16/10 Q1017 R21/090060 NOSIG RMK QFE752
VFR 16°C / 10°C 120º 8kt >10km - Clouds and Visibility OK 1017 No Significant change. Runway 21: Clear and dry, 51-100% contamination with <1mm, friction coefficient 0.60. USPP 130000Z 12004MPS CAVOK 16/10 Q1017 R21/090060 NOSIG RMK QFE752
VFR 15°C / 11°C 130º 6kt >10km - Clouds and Visibility OK 1017 No Significant change. Runway 21: Clear and dry, 51-100% contamination with <1mm, friction coefficient 0.60. USPP 122330Z 13003MPS CAVOK 15/11 Q1017 R21/090060 NOSIG RMK QFE752
VFR 16°C / 10°C 120º 8kt >10km - Clouds and Visibility OK 1017 No Significant change. Runway 21: Clear and dry, 51-100% contamination with <1mm, friction coefficient 0.60. USPP 122300Z 12004MPS CAVOK 16/10 Q1017 R21/090060 NOSIG RMK QFE752
VFR 16°C / 11°C 120º 8kt >10km - Clouds and Visibility OK 1017 No Significant change. Runway 21: Clear and dry, 51-100% contamination with <1mm, friction coefficient 0.60. USPP 122230Z 12004MPS CAVOK 16/11 Q1017 R21/090060 NOSIG RMK QFE752
VFR 16°C / 11°C 120º 8kt >10km - Clouds and Visibility OK 1017 No Significant change. Runway 21: Clear and dry, 51-100% contamination with <1mm, friction coefficient 0.60. USPP 122200Z 12004MPS CAVOK 16/11 Q1017 R21/090060 NOSIG RMK QFE752
VFR 16°C / 11°C 120º 10kt >10km - Clouds and Visibility OK 1017 No Significant change. Runway 03: Clear and dry, 51-100% contamination with <1mm, friction coefficient 0.60. USPP 122130Z 12005MPS CAVOK 16/11 Q1017 R03/090060 NOSIG RMK QFE752
VFR 16°C / 11°C 110º 10kt >10km - Clouds and Visibility OK 1017 No Significant change. Runway 03: Clear and dry, 51-100% contamination with <1mm, friction coefficient 0.60. USPP 122100Z 11005MPS CAVOK 16/11 Q1017 R03/090060 NOSIG RMK QFE752
VFR 16°C / 12°C 120º 8kt >10km - Clouds and Visibility OK 1018 No Significant change. Runway 03: Clear and dry, 51-100% contamination with <1mm, friction coefficient 0.60. USPP 122030Z 12004MPS CAVOK 16/12 Q1018 R03/090060 NOSIG RMK QFE752
VFR 16°C / 12°C 110º 6kt >10km - Clouds and Visibility OK 1018 No Significant change. Runway 03: Clear and dry, 51-100% contamination with <1mm, friction coefficient 0.60. USPP 122000Z 11003MPS CAVOK 16/12 Q1018 R03/090060 NOSIG RMK QFE753
VFR 16°C / 12°C 100º 6kt >10km - Clouds and Visibility OK 1018 No Significant change. Runway 03: Clear and dry, 51-100% contamination with <1mm, friction coefficient 0.60. USPP 121930Z 10003MPS CAVOK 16/12 Q1018 R03/090060 NOSIG RMK QFE753
VFR 15°C / 12°C 110º 4kt >10km - Clouds and Visibility OK 1018 No Significant change. Runway 03: Clear and dry, 51-100% contamination with <1mm, friction coefficient 0.60. USPP 121900Z 11002MPS CAVOK 15/12 Q1018 R03/090060 NOSIG RMK QFE753
VFR 16°C / 12°C 100º 8kt >10km - Clouds and Visibility OK 1018 No Significant change. Runway 03: Clear and dry, 51-100% contamination with <1mm, friction coefficient 0.60. USPP 121830Z 10004MPS CAVOK 16/12 Q1018 R03/090060 NOSIG RMK QFE753
VFR 16°C / 13°C 110º 6kt >10km - Clouds and Visibility OK 1018 No Significant change. Runway 03: Clear and dry, 51-100% contamination with <1mm, friction coefficient 0.60. USPP 121800Z 11003MPS CAVOK 16/13 Q1018 R03/090060 NOSIG RMK QFE753
VFR 15°C / 15°C 70º 6kt >10km - Clouds and Visibility OK 1018 No Significant change. Runway 21: Clear and dry, 51-100% contamination with <1mm, friction coefficient 0.60. USPP 121730Z 07003MPS CAVOK 15/15 Q1018 R21/090060 NOSIG RMK QFE753
VFR 16°C / 15°C 40º 4kt >10km - Clouds and Visibility OK 1019 No Significant change. Runway 21: Clear and dry, 51-100% contamination with <1mm, friction coefficient 0.60. USPP 121700Z 04002MPS CAVOK 16/15 Q1019 R21/090060 NOSIG RMK QFE753
VFR 16°C / 15°C 40º 4kt >10km - Clouds and Visibility OK 1019 No Significant change. Runway 21: Clear and dry, 51-100% contamination with <1mm, friction coefficient 0.60. USPP 121630Z 04002MPS CAVOK 16/15 Q1019 R21/090060 NOSIG RMK QFE753
VFR 16°C / 15°C 350º 2kt >10km - Clouds and Visibility OK 1019 No Significant change. Runway 21: Clear and dry, 51-100% contamination with <1mm, friction coefficient 0.60. USPP 121600Z 35001MPS CAVOK 16/15 Q1019 R21/090060 NOSIG RMK QFE753
VFR 16°C / 14°C 350º 4kt >10km - Clouds and Visibility OK 1019 No Significant change. Runway 21: Wet or puddles, 51-100% contamination with 2mm, friction coefficient 0.50. USPP 121530Z 35002MPS CAVOK 16/14 Q1019 R21/290250 NOSIG RMK QFE753

VFR

18°C / 9°C

[Больше]
Ветер 110º 6kt
Видимость >10km
Погода -
Облачность Clouds and Visibility OK
Давление 1017
Изменить No Significant change. Runway 21: Clear and dry, 51-100% contamination with <1mm, friction coefficient 0.60.
Необработанный USPP 130300Z 11003MPS CAVOK 18/09 Q1017 R21/090060 NOSIG RMK QFE752

VFR

18°C / 10°C

[Больше]
Ветер 130º 8kt
Видимость >10km
Погода -
Облачность Clouds and Visibility OK
Давление 1017
Изменить No Significant change. Runway 21: Clear and dry, 51-100% contamination with <1mm, friction coefficient 0.60.
Необработанный USPP 130230Z 13004MPS CAVOK 18/10 Q1017 R21/090060 NOSIG RMK QFE752

VFR

17°C / 10°C

[Больше]
Ветер 130º 10kt
Видимость >10km
Погода -
Облачность Clouds and Visibility OK
Давление 1017
Изменить No Significant change. Runway 21: Clear and dry, 51-100% contamination with <1mm, friction coefficient 0.60.
Необработанный USPP 130200Z 13005MPS CAVOK 17/10 Q1017 R21/090060 NOSIG RMK QFE752

VFR

17°C / 10°C

[Больше]
Ветер 120º 6kt
Видимость >10km
Погода -
Облачность Clouds and Visibility OK
Давление 1017
Изменить No Significant change. Runway 21: Clear and dry, 51-100% contamination with <1mm, friction coefficient 0.60.
Необработанный USPP 130130Z 12003MPS CAVOK 17/10 Q1017 R21/090060 NOSIG RMK QFE752

VFR

16°C / 10°C

[Больше]
Ветер 120º variable 090º to 160º 6kt
Видимость >10km
Погода -
Облачность Clouds and Visibility OK
Давление 1017
Изменить No Significant change. Runway 21: Clear and dry, 51-100% contamination with <1mm, friction coefficient 0.60.
Необработанный USPP 130100Z 12003MPS 090V160 CAVOK 16/10 Q1017 R21/090060 NOSIG RMK QFE752

VFR

16°C / 10°C

[Больше]
Ветер 140º variable 100º to 190º 4kt
Видимость >10km
Погода -
Облачность Clouds and Visibility OK
Давление 1017
Изменить No Significant change. Runway 21: Clear and dry, 51-100% contamination with <1mm, friction coefficient 0.60.
Необработанный USPP 130030Z 14002MPS 100V190 CAVOK 16/10 Q1017 R21/090060 NOSIG RMK QFE752

VFR

16°C / 10°C

[Больше]
Ветер 120º 8kt
Видимость >10km
Погода -
Облачность Clouds and Visibility OK
Давление 1017
Изменить No Significant change. Runway 21: Clear and dry, 51-100% contamination with <1mm, friction coefficient 0.60.
Необработанный USPP 130000Z 12004MPS CAVOK 16/10 Q1017 R21/090060 NOSIG RMK QFE752

VFR

15°C / 11°C

[Больше]
Ветер 130º 6kt
Видимость >10km
Погода -
Облачность Clouds and Visibility OK
Давление 1017
Изменить No Significant change. Runway 21: Clear and dry, 51-100% contamination with <1mm, friction coefficient 0.60.
Необработанный USPP 122330Z 13003MPS CAVOK 15/11 Q1017 R21/090060 NOSIG RMK QFE752

VFR

16°C / 10°C

[Больше]
Ветер 120º 8kt
Видимость >10km
Погода -
Облачность Clouds and Visibility OK
Давление 1017
Изменить No Significant change. Runway 21: Clear and dry, 51-100% contamination with <1mm, friction coefficient 0.60.
Необработанный USPP 122300Z 12004MPS CAVOK 16/10 Q1017 R21/090060 NOSIG RMK QFE752

VFR

16°C / 11°C

[Больше]
Ветер 120º 8kt
Видимость >10km
Погода -
Облачность Clouds and Visibility OK
Давление 1017
Изменить No Significant change. Runway 21: Clear and dry, 51-100% contamination with <1mm, friction coefficient 0.60.
Необработанный USPP 122230Z 12004MPS CAVOK 16/11 Q1017 R21/090060 NOSIG RMK QFE752

VFR

16°C / 11°C

[Больше]
Ветер 120º 8kt
Видимость >10km
Погода -
Облачность Clouds and Visibility OK
Давление 1017
Изменить No Significant change. Runway 21: Clear and dry, 51-100% contamination with <1mm, friction coefficient 0.60.
Необработанный USPP 122200Z 12004MPS CAVOK 16/11 Q1017 R21/090060 NOSIG RMK QFE752

VFR

16°C / 11°C

[Больше]
Ветер 120º 10kt
Видимость >10km
Погода -
Облачность Clouds and Visibility OK
Давление 1017
Изменить No Significant change. Runway 03: Clear and dry, 51-100% contamination with <1mm, friction coefficient 0.60.
Необработанный USPP 122130Z 12005MPS CAVOK 16/11 Q1017 R03/090060 NOSIG RMK QFE752

VFR

16°C / 11°C

[Больше]
Ветер 110º 10kt
Видимость >10km
Погода -
Облачность Clouds and Visibility OK
Давление 1017
Изменить No Significant change. Runway 03: Clear and dry, 51-100% contamination with <1mm, friction coefficient 0.60.
Необработанный USPP 122100Z 11005MPS CAVOK 16/11 Q1017 R03/090060 NOSIG RMK QFE752

VFR

16°C / 12°C

[Больше]
Ветер 120º 8kt
Видимость >10km
Погода -
Облачность Clouds and Visibility OK
Давление 1018
Изменить No Significant change. Runway 03: Clear and dry, 51-100% contamination with <1mm, friction coefficient 0.60.
Необработанный USPP 122030Z 12004MPS CAVOK 16/12 Q1018 R03/090060 NOSIG RMK QFE752

VFR

16°C / 12°C

[Больше]
Ветер 110º 6kt
Видимость >10km
Погода -
Облачность Clouds and Visibility OK
Давление 1018
Изменить No Significant change. Runway 03: Clear and dry, 51-100% contamination with <1mm, friction coefficient 0.60.
Необработанный USPP 122000Z 11003MPS CAVOK 16/12 Q1018 R03/090060 NOSIG RMK QFE753

VFR

16°C / 12°C

[Больше]
Ветер 100º 6kt
Видимость >10km
Погода -
Облачность Clouds and Visibility OK
Давление 1018
Изменить No Significant change. Runway 03: Clear and dry, 51-100% contamination with <1mm, friction coefficient 0.60.
Необработанный USPP 121930Z 10003MPS CAVOK 16/12 Q1018 R03/090060 NOSIG RMK QFE753

VFR

15°C / 12°C

[Больше]
Ветер 110º 4kt
Видимость >10km
Погода -
Облачность Clouds and Visibility OK
Давление 1018
Изменить No Significant change. Runway 03: Clear and dry, 51-100% contamination with <1mm, friction coefficient 0.60.
Необработанный USPP 121900Z 11002MPS CAVOK 15/12 Q1018 R03/090060 NOSIG RMK QFE753

VFR

16°C / 12°C

[Больше]
Ветер 100º 8kt
Видимость >10km
Погода -
Облачность Clouds and Visibility OK
Давление 1018
Изменить No Significant change. Runway 03: Clear and dry, 51-100% contamination with <1mm, friction coefficient 0.60.
Необработанный USPP 121830Z 10004MPS CAVOK 16/12 Q1018 R03/090060 NOSIG RMK QFE753

VFR

16°C / 13°C

[Больше]
Ветер 110º 6kt
Видимость >10km
Погода -
Облачность Clouds and Visibility OK
Давление 1018
Изменить No Significant change. Runway 03: Clear and dry, 51-100% contamination with <1mm, friction coefficient 0.60.
Необработанный USPP 121800Z 11003MPS CAVOK 16/13 Q1018 R03/090060 NOSIG RMK QFE753

VFR

15°C / 15°C

[Больше]
Ветер 70º 6kt
Видимость >10km
Погода -
Облачность Clouds and Visibility OK
Давление 1018
Изменить No Significant change. Runway 21: Clear and dry, 51-100% contamination with <1mm, friction coefficient 0.60.
Необработанный USPP 121730Z 07003MPS CAVOK 15/15 Q1018 R21/090060 NOSIG RMK QFE753

VFR

16°C / 15°C

[Больше]
Ветер 40º 4kt
Видимость >10km
Погода -
Облачность Clouds and Visibility OK
Давление 1019
Изменить No Significant change. Runway 21: Clear and dry, 51-100% contamination with <1mm, friction coefficient 0.60.
Необработанный USPP 121700Z 04002MPS CAVOK 16/15 Q1019 R21/090060 NOSIG RMK QFE753

VFR

16°C / 15°C

[Больше]
Ветер 40º 4kt
Видимость >10km
Погода -
Облачность Clouds and Visibility OK
Давление 1019
Изменить No Significant change. Runway 21: Clear and dry, 51-100% contamination with <1mm, friction coefficient 0.60.
Необработанный USPP 121630Z 04002MPS CAVOK 16/15 Q1019 R21/090060 NOSIG RMK QFE753

VFR

16°C / 15°C

[Больше]
Ветер 350º 2kt
Видимость >10km
Погода -
Облачность Clouds and Visibility OK
Давление 1019
Изменить No Significant change. Runway 21: Clear and dry, 51-100% contamination with <1mm, friction coefficient 0.60.
Необработанный USPP 121600Z 35001MPS CAVOK 16/15 Q1019 R21/090060 NOSIG RMK QFE753

VFR

16°C / 14°C

[Больше]
Ветер 350º 4kt
Видимость >10km
Погода -
Облачность Clouds and Visibility OK
Давление 1019
Изменить No Significant change. Runway 21: Wet or puddles, 51-100% contamination with 2mm, friction coefficient 0.50.
Необработанный USPP 121530Z 35002MPS CAVOK 16/14 Q1019 R21/290250 NOSIG RMK QFE753

TAF для 57.92°С 56.02°В (USPP)

From till


From till Wind 120º 6kt. Gust 25kt. Visibility 10km or more. Broken Clouds 3000ft.
Temporarly from till Light Thunderstorm Rain . Broken Clouds 2000ft.
Becoming from till Wind 170º 6kt. Gust 25kt. Visibility 10km or more. Broken Clouds 3000ft.

Необработанный: TAF USPP 130158Z 1303/1403 12003G13MPS 9999 BKN030 TEMPO 1305/1316 -TSRA BKN020CB BECMG 1306/1307 17003G13MPS

Текущие спутниковые изображения и снимки дождя для 57.92°С 56.02°В

Указатель местности находится на 57.92°С 56.02°В. [Больше]

Спутниковое изображение в реальном времени сочетает в себе видимый свет в дневное время с инфракрасным излучением в ночное время. Ночью изображение получается не темным, так как инфракрасное излучение может обнаружить разницу температур. К сожалению, низкие облака и туман трудно отличить от температуры у поверхности земли и поэтому могут быть почти незаметны ночью. Спутниковые снимки Meteosat для Европы обновляются каждые 5 минут в режиме реального времени.Снимки GOES-16/GOES-17 (Северная и Южная Америка) и Химавари (Азия) обновляются каждые 10 минут.

Копирайт 2021 EUMETSAT / meteoblue. / Копирайт 2021 meteoblue

Радарный и сверхкраткосрочный прогноз осадков для 57.92°С 56.02°В

Индикатор местности находится на 57.92°С 56.02°В. Анимация показывает радар осадков за последний час, а также прогноз погоды для1h. Умеренная морось или легкий снег могут быть незаметны для радара. Интенсивность осадковмаркированна цветной кодировкой, начиная со светло-синего и заканчивая темно-пурпурным.